Time,TemperatureF,DewpointF,PressureIn,WindDirection,WindDirectionDegrees,WindSpeedMPH,WindSpeedGustMPH,Humidity,HourlyPrecipIn,Conditions,Clouds,dailyrainin,SoftwareType,DateUTC
2013-02-11 00:00:00,43.0,40.0,30.06,East,89,1.0,3.0,89,0.00,,---,0.00,VWS V14.00,2013-02-11 08:00:00,
2013-02-11 00:02:00,45.5,41.6,30.05,NNE,15,0.0,4.0,86,0.00,,---,0.00,VWS V14.00,2013-02-11 08:02:00,
2013-02-11 00:13:00,45.1,41.0,30.05,NNE,15,0.0,0.0,86,0.00,,,0.00,weatherlink.com 1.10,2013-02-11 08:13:00,
2013-02-11 00:30:00,44.2,41.0,30.05,East,94,0.0,3.0,88,0.00,,,0.00,weatherlink.com 1.10,2013-02-11 08:30:00,
2013-02-11 00:32:00,44.1,40.8,30.05,East,91,0.0,3.0,88,0.00,,---,0.00,VWS V14.00,2013-02-11 08:32:00,
2013-02-11 00:48:00,43.4,41.0,30.05,East,101,1.0,3.0,90,0.00,,,0.00,weatherlink.com 1.10,2013-02-11 08:48:00,
2013-02-11 01:00:00,41.2,38.8,30.05,ESE,106,2.0,7.0,91,0.00,,---,0.00,VWS V14.00,2013-02-11 09:00:00,
2013-02-11 01:02:00,43.0,40.0,30.06,East,89,1.0,3.0,89,0.00,,---,0.00,VWS V14.00,2013-02-11 09:02:00,
2013-02-11 01:05:00,42.9,40.0,30.06,ENE,74,0.0,3.0,89,0.00,,,0.00,weatherlink.com 1.10,2013-02-11 09:05:00,
2013-02-11 01:22:00,42.8,40.0,30.06,East,101,0.0,2.0,88,0.00,,,0.00,weatherlink.com 1.10,2013-02-11 09:22:00,
2013-02-11 01:30:00,41.5,38.5,30.05,ENE,71,2.0,3.0,89,0.00,,---,0.00,VWS V14.00,2013-02-11 09:30:00,
2013-02-11 01:32:00,42.4,39.1,30.06,ESE,109,2.0,2.0,88,0.00,,---,0.00,VWS V14.00,2013-02-11 09:32:00,
2013-02-11 01:40:00,42.1,39.0,30.05,ENE,71,2.0,3.0,90,0.00,,,0.00,weatherlink.com 1.10,2013-02-11 09:40:00,
2013-02-11 01:57:00,41.3,39.0,30.05,ESE,107,1.0,5.0,90,0.00,,,0.00,weatherlink.com 1.10,2013-02-11 09:57:00,
2013-02-11 02:00:00,42.1,38.5,30.04,ESE,107,1.0,5.0,87,0.00,,---,0.00,VWS V14.00,2013-02-11 10:00:00,
2013-02-11 02:02:00,41.2,38.8,30.05,ESE,106,2.0,7.0,91,0.00,,---,0.00,VWS V14.00,2013-02-11 10:02:00,
2013-02-11 02:14:00,41.7,39.0,30.05,East,88,0.0,3.0,90,0.00,,,0.00,weatherlink.com 1.10,2013-02-11 10:14:00,
2013-02-11 02:30:00,42.2,38.3,30.04,ESE,104,4.0,7.0,86,0.00,,---,0.00,VWS V14.00,2013-02-11 10:30:00,
2013-02-11 02:31:00,41.5,39.0,30.05,East,94,2.0,2.0,89,0.00,,,0.00,weatherlink.com 1.10,2013-02-11 10:31:00,
2013-02-11 02:49:00,42.1,39.0,30.05,East,97,0.0,5.0,87,0.00,,,0.00,weatherlink.com 1.10,2013-02-11 10:49:00,
2013-02-11 03:00:00,39.2,36.5,30.04,ESE,109,0.0,7.0,90,0.00,,---,0.00,VWS V14.00,2013-02-11 11:00:00,
2013-02-11 03:02:00,42.1,38.5,30.04,ESE,107,1.0,5.0,87,0.00,,---,0.00,VWS V14.00,2013-02-11 11:02:00,
2013-02-11 03:06:00,42.2,38.0,30.04,SE,126,2.0,3.0,86,0.00,,,0.00,weatherlink.com 1.10,2013-02-11 11:06:00,
2013-02-11 03:23:00,42.1,38.0,30.04,East,98,2.0,2.0,86,0.00,,,0.00,weatherlink.com 1.10,2013-02-11 11:23:00,
2013-02-11 03:30:00,39.1,36.1,30.05,SE,126,3.0,5.0,89,0.00,,---,0.00,VWS V14.00,2013-02-11 11:30:00,
2013-02-11 03:32:00,42.2,38.3,30.04,ESE,104,4.0,7.0,86,0.00,,---,0.00,VWS V14.00,2013-02-11 11:32:00,
2013-02-11 03:41:00,39.9,37.0,30.04,ESE,117,1.0,7.0,89,0.00,,,0.00,weatherlink.com 1.10,2013-02-11 11:41:00,
2013-02-11 03:57:00,39.3,37.0,30.04,ESE,111,0.0,5.0,90,0.00,,,0.00,weatherlink.com 1.10,2013-02-11 11:57:00,
2013-02-11 04:00:00,38.5,36.4,30.05,ESE,112,4.0,7.0,92,0.00,,---,0.00,VWS V14.00,2013-02-11 12:00:00,
2013-02-11 04:02:00,39.2,36.5,30.04,ESE,109,0.0,7.0,90,0.00,,---,0.00,VWS V14.00,2013-02-11 12:02:00,
2013-02-11 04:15:00,39.8,37.0,30.04,ESE,118,2.0,4.0,90,0.00,,,0.00,weatherlink.com 1.10,2013-02-11 12:15:00,
2013-02-11 04:30:00,39.0,36.3,30.05,SSE,148,0.0,5.0,90,0.00,,---,0.00,VWS V14.00,2013-02-11 12:30:00,
2013-02-11 04:31:00,39.2,37.0,30.05,ESE,107,2.0,5.0,90,0.00,,,0.00,weatherlink.com 1.10,2013-02-11 12:31:00,
2013-02-11 04:32:00,39.1,36.1,30.05,SE,126,3.0,5.0,89,0.00,,---,0.00,VWS V14.00,2013-02-11 12:32:00,
2013-02-11 04:49:00,37.6,35.0,30.05,ESE,112,2.0,7.0,91,0.00,,,0.00,weatherlink.com 1.10,2013-02-11 12:49:00,
2013-02-11 05:00:00,37.9,35.5,30.06,SE,141,2.0,3.0,91,0.00,,---,0.00,VWS V14.00,2013-02-11 13:00:00,
2013-02-11 05:02:00,38.5,36.4,30.05,ESE,112,4.0,7.0,92,0.00,,---,0.00,VWS V14.00,2013-02-11 13:02:00,
2013-02-11 05:07:00,38.5,36.0,30.05,ESE,106,1.0,5.0,91,0.00,,,0.00,weatherlink.com 1.10,2013-02-11 13:07:00,
2013-02-11 05:24:00,38.9,37.0,30.05,ESE,109,0.0,2.0,91,0.00,,,0.00,weatherlink.com 1.10,2013-02-11 13:24:00,
2013-02-11 05:30:00,38.6,36.2,30.07,East,99,1.0,5.0,91,0.00,,---,0.00,VWS V14.00,2013-02-11 13:30:00,
2013-02-11 05:32:00,39.0,36.3,30.05,SSE,148,0.0,5.0,90,0.00,,---,0.00,VWS V14.00,2013-02-11 13:32:00,
2013-02-11 05:41:00,38.8,36.0,30.05,SE,140,1.0,3.0,90,0.00,,,0.00,weatherlink.com 1.10,2013-02-11 13:41:00,
2013-02-11 05:59:00,37.9,36.0,30.05,ESE,121,0.0,2.0,91,0.00,,,0.00,weatherlink.com 1.10,2013-02-11 13:59:00,
2013-02-11 06:00:00,38.1,35.4,30.09,ESE,123,3.0,5.0,90,0.00,,---,0.00,VWS V14.00,2013-02-11 14:00:00,
2013-02-11 06:02:00,37.9,35.5,30.06,SE,141,2.0,3.0,91,0.00,,---,0.00,VWS V14.00,2013-02-11 14:02:00,
2013-02-11 06:16:00,38.4,36.0,30.07,ESE,111,3.0,4.0,91,0.00,,,0.00,weatherlink.com 1.10,2013-02-11 14:16:00,
2013-02-11 06:30:00,41.1,37.8,30.10,ESE,115,1.0,5.0,88,0.00,,---,0.00,VWS V14.00,2013-02-11 14:30:00,
2013-02-11 06:32:00,38.6,36.2,30.07,East,99,1.0,5.0,91,0.00,,---,0.00,VWS V14.00,2013-02-11 14:32:00,
2013-02-11 06:33:00,38.6,36.0,30.07,ESE,105,2.0,4.0,91,0.00,,,0.00,weatherlink.com 1.10,2013-02-11 14:33:00,
2013-02-11 06:50:00,39.4,37.0,30.08,SE,129,2.0,4.0,89,0.00,,,0.00,weatherlink.com 1.10,2013-02-11 14:50:00,
2013-02-11 07:00:00,43.6,39.7,30.11,ESE,108,3.0,7.0,86,0.00,,---,0.00,VWS V14.00,2013-02-11 15:00:00,
2013-02-11 07:02:00,38.1,35.4,30.09,ESE,123,3.0,5.0,90,0.00,,---,0.00,VWS V14.00,2013-02-11 15:02:00,
2013-02-11 07:08:00,37.8,35.0,30.09,SE,126,4.0,6.0,90,0.00,,,0.00,weatherlink.com 1.10,2013-02-11 15:08:00,
2013-02-11 07:24:00,39.8,37.0,30.09,SE,130,0.0,5.0,90,0.00,,,0.00,weatherlink.com 1.10,2013-02-11 15:24:00,
2013-02-11 07:30:00,47.2,42.0,30.12,SE,128,3.0,6.0,82,0.00,,---,0.00,VWS V14.00,2013-02-11 15:30:00,
2013-02-11 07:32:00,41.1,37.8,30.10,ESE,115,1.0,5.0,88,0.00,,---,0.00,VWS V14.00,2013-02-11 15:32:00,
2013-02-11 07:42:00,42.3,38.0,30.10,ESE,108,2.0,3.0,86,0.00,,,0.00,weatherlink.com 1.10,2013-02-11 15:42:00,
2013-02-11 07:59:00,43.2,40.0,30.11,ESE,117,3.0,5.0,87,0.00,,,0.00,weatherlink.com 1.10,2013-02-11 15:59:00,
2013-02-11 08:00:00,50.3,43.4,30.13,ESE,107,1.0,6.0,77,0.00,,---,0.00,VWS V14.00,2013-02-11 16:00:00,
2013-02-11 08:16:00,45.1,41.0,30.11,ESE,110,3.0,4.0,85,0.00,,,0.00,weatherlink.com 1.10,2013-02-11 16:16:00,
2013-02-11 08:30:00,53.7,45.6,30.14,SW,231,3.0,5.0,74,0.00,,---,0.00,VWS V14.00,2013-02-11 16:30:00,
2013-02-11 08:32:00,47.2,42.0,30.12,SE,128,3.0,6.0,82,0.00,,---,0.00,VWS V14.00,2013-02-11 16:32:00,
2013-02-11 08:34:00,47.3,42.0,30.12,ESE,111,3.0,5.0,81,0.00,,,0.00,weatherlink.com 1.10,2013-02-11 16:34:00,
2013-02-11 08:51:00,48.6,42.0,30.13,East,101,0.0,5.0,79,0.00,,,0.00,weatherlink.com 1.10,2013-02-11 16:51:00,
2013-02-11 09:00:00,51.9,44.6,30.15,West,275,2.0,8.0,76,0.00,,---,0.00,VWS V14.00,2013-02-11 17:00:00,
2013-02-11 09:02:00,50.3,43.4,30.13,ESE,107,1.0,6.0,77,0.00,,---,0.00,VWS V14.00,2013-02-11 17:02:00,
2013-02-11 09:08:00,50.4,43.0,30.13,SE,142,2.0,3.0,76,0.00,,,0.00,weatherlink.com 1.10,2013-02-11 17:08:00,
2013-02-11 09:26:00,52.7,45.0,30.14,SE,145,0.0,3.0,76,0.00,,,0.00,weatherlink.com 1.10,2013-02-11 17:26:00,
2013-02-11 09:30:00,52.4,45.4,30.15,SW,222,6.0,8.0,77,0.00,,---,0.00,VWS V14.00,2013-02-11 17:30:00,
2013-02-11 09:32:00,53.7,45.6,30.14,SW,231,3.0,5.0,74,0.00,,---,0.00,VWS V14.00,2013-02-11 17:32:00,
2013-02-11 09:43:00,52.1,45.0,30.14,West,269,3.0,8.0,77,0.00,,,0.00,weatherlink.com 1.10,2013-02-11 17:43:00,
2013-02-11 10:00:00,52.0,45.0,30.14,WNW,297,0.0,7.0,77,0.00,,,0.00,weatherlink.com 1.10,2013-02-11 18:00:00,
2013-02-11 10:02:00,51.9,44.6,30.15,West,275,2.0,8.0,76,0.00,,---,0.00,VWS V14.00,2013-02-11 18:02:00,
2013-02-11 10:18:00,51.8,45.0,30.15,WSW,246,4.0,7.0,78,0.00,,,0.00,weatherlink.com 1.10,2013-02-11 18:18:00,
2013-02-11 10:30:00,52.4,46.4,30.14,West,263,9.0,11.0,80,0.00,,---,0.00,VWS V14.00,2013-02-11 18:30:00,
2013-02-11 10:32:00,52.4,45.4,30.15,SW,222,6.0,8.0,77,0.00,,---,0.00,VWS V14.00,2013-02-11 18:32:00,
2013-02-11 10:36:00,52.7,46.0,30.15,WSW,253,6.0,9.0,78,0.00,,,0.00,weatherlink.com 1.10,2013-02-11 18:36:00,
2013-02-11 10:52:00,52.7,46.0,30.16,West,260,5.0,10.0,78,0.00,,,0.00,weatherlink.com 1.10,2013-02-11 18:52:00,
2013-02-11 11:00:00,52.4,46.4,30.13,WSW,245,10.0,13.0,80,0.00,,---,0.00,VWS V14.00,2013-02-11 19:00:00,
2013-02-11 11:02:00,52.5,46.2,30.15,WSW,246,3.0,10.0,79,0.00,,---,0.00,VWS V14.00,2013-02-11 19:02:00,
2013-02-11 11:10:00,53.0,47.0,30.15,SW,234,0.0,10.0,79,0.00,,,0.00,weatherlink.com 1.10,2013-02-11 19:10:00,
2013-02-11 11:27:00,53.0,47.0,30.15,West,261,4.0,9.0,79,0.00,,,0.00,weatherlink.com 1.10,2013-02-11 19:27:00,
2013-02-11 11:30:00,53.1,47.1,30.12,West,274,8.0,15.0,80,0.00,,---,0.00,VWS V14.00,2013-02-11 19:30:00,
2013-02-11 11:32:00,52.4,46.4,30.14,West,263,9.0,11.0,80,0.00,,---,0.00,VWS V14.00,2013-02-11 19:32:00,
2013-02-11 11:44:00,52.7,47.0,30.14,SW,233,10.0,12.0,81,0.00,,,0.00,weatherlink.com 1.10,2013-02-11 19:44:00,
2013-02-11 12:00:00,54.0,47.0,30.11,West,263,11.0,15.0,77,0.00,,---,0.00,VWS V14.00,2013-02-11 20:00:00,
2013-02-11 12:02:00,52.5,47.0,30.13,West,259,6.0,13.0,80,0.00,,,0.00,weatherlink.com 1.10,2013-02-11 20:02:00,
2013-02-11 12:19:00,52.8,47.0,30.12,West,272,8.0,12.0,80,0.00,,,0.00,weatherlink.com 1.10,2013-02-11 20:19:00,
2013-02-11 12:30:00,54.7,46.2,30.10,WNW,293,10.0,14.0,73,0.00,,---,0.00,VWS V14.00,2013-02-11 20:30:00,
2013-02-11 12:32:00,53.1,47.1,30.12,West,274,8.0,15.0,80,0.00,,---,0.00,VWS V14.00,2013-02-11 20:32:00,
2013-02-11 12:36:00,53.4,47.0,30.12,WSW,255,6.0,14.0,79,0.00,,,0.00,weatherlink.com 1.10,2013-02-11 20:36:00,
2013-02-11 12:54:00,53.7,47.0,30.11,West,270,9.0,15.0,77,0.00,,,0.00,weatherlink.com 1.10,2013-02-11 20:54:00,
2013-02-11 13:00:00,55.1,45.5,30.10,West,271,11.0,16.0,70,0.00,,---,0.00,VWS V14.00,2013-02-11 21:00:00,
2013-02-11 13:02:00,54.0,47.0,30.11,West,263,11.0,15.0,77,0.00,,---,0.00,VWS V14.00,2013-02-11 21:02:00,
2013-02-11 13:11:00,54.3,47.0,30.11,West,265,11.0,14.0,77,0.00,,,0.00,weatherlink.com 1.10,2013-02-11 21:11:00,
2013-02-11 13:28:00,54.5,46.0,30.11,West,273,11.0,14.0,74,0.00,,,0.00,weatherlink.com 1.10,2013-02-11 21:28:00,
2013-02-11 13:30:00,55.1,44.0,30.10,WNW,291,10.0,17.0,66,0.00,,---,0.00,VWS V14.00,2013-02-11 21:30:00,
2013-02-11 13:46:00,55.1,45.0,30.10,West,274,6.0,14.0,68,0.00,,,0.00,weatherlink.com 1.10,2013-02-11 21:46:00,
2013-02-11 14:00:00,55.5,41.9,30.10,West,279,9.0,17.0,60,0.00,,---,0.00,VWS V14.00,2013-02-11 22:00:00,
2013-02-11 14:02:00,55.1,45.5,30.10,West,271,11.0,16.0,70,0.00,,---,0.00,VWS V14.00,2013-02-11 22:02:00,
2013-02-11 14:03:00,55.1,45.0,30.10,West,277,8.0,16.0,70,0.00,,,0.00,weatherlink.com 1.10,2013-02-11 22:03:00,
2013-02-11 14:20:00,54.8,45.0,30.10,WSW,258,10.0,16.0,69,0.00,,,0.00,weatherlink.com 1.10,2013-02-11 22:20:00,
2013-02-11 14:30:00,55.7,42.9,30.10,West,263,10.0,17.0,62,0.00,,---,0.00,VWS V14.00,2013-02-11 22:30:00,
2013-02-11 14:32:00,55.1,44.0,30.10,WNW,291,10.0,17.0,66,0.00,,---,0.00,VWS V14.00,2013-02-11 22:32:00,
2013-02-11 14:38:00,55.4,45.0,30.10,West,277,13.0,16.0,68,0.00,,,0.00,weatherlink.com 1.10,2013-02-11 22:38:00,
2013-02-11 14:55:00,55.5,42.0,30.10,WNW,303,12.0,16.0,61,0.00,,,0.00,weatherlink.com 1.10,2013-02-11 22:55:00,
2013-02-11 15:00:00,56.6,44.6,30.12,WNW,291,7.0,19.0,64,0.00,,---,0.00,VWS V14.00,2013-02-11 23:00:00,
2013-02-11 15:02:00,55.5,41.9,30.10,West,279,9.0,17.0,60,0.00,,---,0.00,VWS V14.00,2013-02-11 23:02:00,
2013-02-11 15:12:00,56.1,43.0,30.10,WNW,284,16.0,17.0,62,0.00,,,0.00,weatherlink.com 1.10,2013-02-11 23:12:00,
2013-02-11 15:29:00,55.8,42.0,30.10,West,269,19.0,19.0,60,0.00,,,0.00,weatherlink.com 1.10,2013-02-11 23:29:00,
2013-02-11 15:30:00,55.7,45.3,30.13,West,278,7.0,16.0,68,0.00,,---,0.00,VWS V14.00,2013-02-11 23:30:00,
2013-02-11 15:32:00,55.7,42.9,30.10,West,263,10.0,17.0,62,0.00,,---,0.00,VWS V14.00,2013-02-11 23:32:00,
2013-02-11 15:47:00,56.4,42.0,30.11,WSW,243,9.0,15.0,58,0.00,,,0.00,weatherlink.com 1.10,2013-02-11 23:47:00,
2013-02-11 16:00:00,54.8,46.7,30.14,NW,306,10.0,17.0,74,0.00,,---,0.00,VWS V14.00,2013-02-12 00:00:00,
2013-02-11 16:02:00,56.6,44.6,30.12,WNW,291,7.0,19.0,64,0.00,,---,0.00,VWS V14.00,2013-02-12 00:02:00,
2013-02-11 16:04:00,56.4,44.0,30.12,West,266,11.0,16.0,63,0.00,,,0.00,weatherlink.com 1.10,2013-02-12 00:04:00,
2013-02-11 16:22:00,55.6,45.0,30.12,SSW,208,2.0,15.0,68,0.00,,,0.00,weatherlink.com 1.10,2013-02-12 00:22:00,
2013-02-11 16:30:00,53.2,47.2,30.14,NW,308,6.0,14.0,80,0.00,,---,0.00,VWS V14.00,2013-02-12 00:30:00,
2013-02-11 16:32:00,55.7,45.3,30.13,West,278,7.0,16.0,68,0.00,,---,0.00,VWS V14.00,2013-02-12 00:32:00,
2013-02-11 16:39:00,55.6,46.0,30.13,WNW,291,10.0,13.0,70,0.00,,,0.00,weatherlink.com 1.10,2013-02-12 00:39:00,
2013-02-11 16:56:00,55.0,47.0,30.13,WNW,294,8.0,15.0,74,0.00,,,0.00,weatherlink.com 1.10,2013-02-12 00:56:00,
2013-02-11 17:00:00,52.5,46.8,30.15,NW,322,3.0,13.0,81,0.00,,---,0.00,VWS V14.00,2013-02-12 01:00:00,
2013-02-11 17:02:00,54.8,46.7,30.14,NW,306,10.0,17.0,74,0.00,,---,0.00,VWS V14.00,2013-02-12 01:02:00,
2013-02-11 17:13:00,54.1,47.0,30.14,NW,321,6.0,12.0,76,0.00,,,0.00,weatherlink.com 1.10,2013-02-12 01:13:00,
2013-02-11 17:30:00,51.9,45.9,30.16,NNE,18,0.0,7.0,80,0.00,,---,0.00,VWS V14.00,2013-02-12 01:30:00,
2013-02-11 17:31:00,53.3,47.0,30.14,WNW,284,4.0,11.0,80,0.00,,,0.00,weatherlink.com 1.10,2013-02-12 01:31:00,
2013-02-11 17:32:00,53.2,47.2,30.14,NW,308,6.0,14.0,80,0.00,,---,0.00,VWS V14.00,2013-02-12 01:32:00,
2013-02-11 17:49:00,52.8,47.0,30.14,WNW,300,8.0,11.0,80,0.00,,,0.00,weatherlink.com 1.10,2013-02-12 01:49:00,
2013-02-11 18:00:00,51.2,45.2,30.17,NNW,328,3.0,5.0,80,0.00,,---,0.00,VWS V14.00,2013-02-12 02:00:00,
2013-02-11 18:02:00,52.5,46.8,30.15,NW,322,3.0,13.0,81,0.00,,---,0.00,VWS V14.00,2013-02-12 02:02:00,
2013-02-11 18:23:00,52.3,46.0,30.16,NNE,30,2.0,7.0,80,0.00,,,0.00,weatherlink.com 1.10,2013-02-12 02:23:00,
2013-02-11 18:30:00,50.6,45.0,30.18,NW,323,0.0,6.0,81,0.00,,---,0.00,VWS V14.00,2013-02-12 02:30:00,
2013-02-11 18:32:00,51.9,45.9,30.16,NNE,18,0.0,7.0,80,0.00,,---,0.00,VWS V14.00,2013-02-12 02:32:00,
2013-02-11 18:40:00,51.8,46.0,30.16,NNW,331,3.0,5.0,80,0.00,,,0.00,weatherlink.com 1.10,2013-02-12 02:40:00,
2013-02-11 18:57:00,51.5,45.0,30.17,NNW,329,3.0,5.0,79,0.00,,,0.00,weatherlink.com 1.10,2013-02-12 02:57:00,
2013-02-11 19:00:00,49.8,45.2,30.18,NNE,15,2.0,4.0,84,0.00,,---,0.00,VWS V14.00,2013-02-12 03:00:00,
2013-02-11 19:02:00,51.2,45.2,30.17,NNW,328,3.0,5.0,80,0.00,,---,0.00,VWS V14.00,2013-02-12 03:02:00,
2013-02-11 19:30:00,49.2,44.9,30.19,East,98,0.0,4.0,85,0.00,,---,0.00,VWS V14.00,2013-02-12 03:30:00,
2013-02-11 19:32:00,50.7,45.0,30.18,NW,323,0.0,3.0,81,0.00,,,0.00,weatherlink.com 1.10,2013-02-12 03:32:00,
2013-02-11 19:49:00,50.2,45.0,30.18,WNW,300,3.0,4.0,83,0.00,,,0.00,weatherlink.com 1.10,2013-02-12 03:49:00,
2013-02-11 20:00:00,49.1,44.5,30.19,North,360,2.0,4.0,84,0.00,,---,0.00,VWS V14.00,2013-02-12 04:00:00,
2013-02-11 20:02:00,49.8,45.2,30.18,NNE,15,2.0,4.0,84,0.00,,---,0.00,VWS V14.00,2013-02-12 04:02:00,
2013-02-11 20:05:00,49.8,45.0,30.18,North,360,3.0,4.0,84,0.00,,,0.00,weatherlink.com 1.10,2013-02-12 04:05:00,
2013-02-11 20:23:00,49.3,45.0,30.19,North,5,0.0,3.0,85,0.00,,,0.00,weatherlink.com 1.10,2013-02-12 04:23:00,
2013-02-11 20:30:00,49.0,44.1,30.20,NW,325,3.0,6.0,83,0.00,,---,0.00,VWS V14.00,2013-02-12 04:30:00,
2013-02-11 20:32:00,49.2,44.9,30.19,East,98,0.0,4.0,85,0.00,,---,0.00,VWS V14.00,2013-02-12 04:32:00,
2013-02-11 20:40:00,48.5,44.0,30.19,East,80,0.0,2.0,84,0.00,,,0.00,weatherlink.com 1.10,2013-02-12 04:40:00,
2013-02-11 20:58:00,49.2,45.0,30.19,North,5,2.0,3.0,84,0.00,,,0.00,weatherlink.com 1.10,2013-02-12 04:58:00,
2013-02-11 21:00:00,46.1,40.9,30.21,ENE,65,2.0,8.0,82,0.00,,---,0.00,VWS V14.00,2013-02-12 05:00:00,
2013-02-11 21:02:00,49.1,44.5,30.19,North,360,2.0,4.0,84,0.00,,---,0.00,VWS V14.00,2013-02-12 05:02:00,
2013-02-11 21:15:00,48.9,44.0,30.19,NW,313,3.0,5.0,83,0.00,,,0.00,weatherlink.com 1.10,2013-02-12 05:15:00,
2013-02-11 21:30:00,44.9,39.8,30.21,ENE,61,2.0,5.0,82,0.00,,---,0.00,VWS V14.00,2013-02-12 05:30:00,
2013-02-11 21:32:00,49.0,44.0,30.20,NNW,331,5.0,6.0,83,0.00,,,0.00,weatherlink.com 1.10,2013-02-12 05:32:00,
2013-02-11 21:50:00,49.3,43.0,30.20,ESE,117,3.0,6.0,80,0.00,,,0.00,weatherlink.com 1.10,2013-02-12 05:50:00,
2013-02-11 22:00:00,45.0,40.2,30.22,East,84,0.0,3.0,83,0.00,,---,0.00,VWS V14.00,2013-02-12 06:00:00,
2013-02-11 22:02:00,46.1,40.9,30.21,ENE,65,2.0,8.0,82,0.00,,---,0.00,VWS V14.00,2013-02-12 06:02:00,
2013-02-11 22:08:00,45.6,40.0,30.21,ENE,59,1.0,6.0,82,0.00,,,0.00,weatherlink.com 1.10,2013-02-12 06:08:00,
2013-02-11 22:30:00,41.8,37.9,30.22,East,98,0.0,3.0,86,0.00,,---,0.00,VWS V14.00,2013-02-12 06:30:00,
2013-02-11 22:32:00,44.9,39.8,30.21,ENE,61,2.0,5.0,82,0.00,,---,0.00,VWS V14.00,2013-02-12 06:32:00,
2013-02-11 22:41:00,44.9,40.0,30.21,SE,126,1.0,3.0,82,0.00,,,0.00,weatherlink.com 1.10,2013-02-12 06:41:00,
2013-02-11 22:59:00,44.8,40.0,30.21,East,86,0.0,2.0,83,0.00,,,0.00,weatherlink.com 1.10,2013-02-12 06:59:00,
2013-02-11 23:00:00,41.0,36.5,30.22,East,101,2.0,4.0,84,0.00,,---,0.00,VWS V14.00,2013-02-12 07:00:00,
2013-02-11 23:02:00,45.0,40.2,30.22,East,84,0.0,3.0,83,0.00,,---,0.00,VWS V14.00,2013-02-12 07:02:00,
2013-02-11 23:15:00,44.2,39.0,30.22,ESE,103,0.0,2.0,81,0.00,,,0.00,weatherlink.com 1.10,2013-02-12 07:15:00,
2013-02-11 23:30:00,42.2,35.8,30.23,ESE,105,0.0,3.0,78,0.00,,---,0.00,VWS V14.00,2013-02-12 07:30:00,
2013-02-11 23:32:00,41.8,37.9,30.22,East,98,0.0,3.0,86,0.00,,---,0.00,VWS V14.00,2013-02-12 07:32:00,
2013-02-11 23:33:00,41.8,38.0,30.22,East,98,0.0,1.0,86,0.00,,,0.00,weatherlink.com 1.10,2013-02-12 07:33:00,
2013-02-11 23:51:00,42.2,38.0,30.22,East,98,2.0,4.0,84,0.00,,,0.00,weatherlink.com 1.10,2013-02-12 07:51:00,